Regional Weather Roundup
Issued by NWS

Home | Current Version | Previous Version | Text Only | Print | Product List | Glossary Off
Versions: 1 2 3 4 5 6 7 8 9 10 11 12 13 14 15 16 17 18 19 20 21 22 23 24 25 26 27 28 29 30 31 32 33 34 35 36 37 38 39 40 41 42 43 44 45 46 47 48 49 50

000
ASUS45 KCYS 290610
RWRWY

WYOMING REGIONAL WEATHER ROUNDUP
NATIONAL WEATHER SERVICE CHEYENNE WY
1200 AM MDT TUE JUL 29 2014

NOTE:  "FAIR" INDICATES FEW OR NO CLOUDS BELOW 12,000 FEET
WITH NO SIGNIFICANT WEATHER AND/OR OBSTRUCTIONS TO VISIBILITY.

WYZ001-290700-
YELLOWSTONE NATIONAL PARK

CITY           SKY/WX    TMP DP  RH WIND       PRES   REMARKS
LK YELLOWSTONE   N/A     58  43  57 VRB3      30.51F
6HR MIN TEMP:  58; 6HR MAX TEMP:  70;

W YELLOWSTONE  NOT AVBL

$$
WYZ002>013-054>058-071-098>099-290700-
NORTHERN WYOMING

CITY           SKY/WX    TMP DP  RH WIND       PRES   REMARKS
JACKSON        CLOUDY    70  43  37 CALM      30.34R
CODY           NOT AVBL
GREYBULL       CLOUDY    83  40  21 N15       30.17S
6HR MIN TEMP:  82; 6HR MAX TEMP:  98;

WORLAND        CLOUDY    78  48  34 SE14      30.22R
6HR MIN TEMP:  76; 6HR MAX TEMP:  93;

SHERIDAN       CLOUDY    72  49  44 E5        30.23S
6HR MIN TEMP:  68; 6HR MAX TEMP:  89;

BUFFALO        CLOUDY    71  48  43 S3        30.31F
6HR MIN TEMP:  71; 6HR MAX TEMP:  86; 6HR PCP: TRACE;

GILLETTE       MOCLDY    69  52  54 SE8       30.26S
6HR MIN TEMP:  69; 6HR MAX TEMP:  87;

HULETT         FAIR      63  52  67 MISG      30.29
NEWCASTLE      FAIR      68  46  45 CALM      30.26

$$
WYZ014>020-022>026-101>103-290700-
CENTRAL WYOMING

CITY           SKY/WX    TMP DP  RH WIND       PRES   REMARKS
BIG PINEY      CLOUDY    73  38  27 NW10G17   30.34F
6HR MIN TEMP:  67; 6HR MAX TEMP:  81;

PINEDALE       CLOUDY    64  41  42 NW12      30.36S
DUBOIS         CLOUDY    64  37  36 S6        30.37S
LANDER         CLOUDY    76  40  27 NW8       30.26R
6HR MIN TEMP:  76; 6HR MAX TEMP:  88;

RIVERTON       MOCLDY    75  41  29 NE21G28   30.25S
6HR MIN TEMP:  75; 6HR MAX TEMP:  88;

CASPER         PTCLDY    70  51  51 E10       30.25S
6HR MIN TEMP:  70; 6HR MAX TEMP:  90;

DOUGLAS        PTCLDY    68  52  56 E14       30.26F
6HR MIN TEMP:  68; 6HR MAX TEMP:  89;


$$
WYZ021-027>030-104>119-290700-
SOUTHERN WYOMING

CITY           SKY/WX    TMP DP  RH WIND       PRES   REMARKS
EVANSTON       CLOUDY    58  54  86 NW7       30.38F
6HR MIN TEMP:  57; 6HR MAX TEMP:  63; 6HR PCP:  0.01;

FORT BRIDGER   MOCLDY    66  50  55 W10       30.38F
ROCK SPRINGS   CLOUDY    68  45  43 W9        30.33F
6HR MIN TEMP:  68; 6HR MAX TEMP:  85;

DIXON          FAIR      68  48  48 S6        30.39F
RAWLINS        CLOUDY    66  45  46 CALM      30.34F
6HR MIN TEMP:  66; 6HR MAX TEMP:  84;

SARATOGA       CLOUDY    68  48  49 E6        30.39S
LARAMIE        CLEAR     60  50  69 SE12      30.40F
6HR MIN TEMP:  60; 6HR MAX TEMP:  78;

CHEYENNE       PTCLDY    62  54  74 SW5       30.35S
6HR MIN TEMP:  61; 6HR MAX TEMP:  79; 6HR PCP: TRACE;

TORRINGTON     CLEAR     65  56  72 E7        30.23R
6HR MIN TEMP:  65; 6HR MAX TEMP:  88;

PINE BLUFFS    FAIR      61  57  88 CALM      30.30S

$$


USA.gov is the U.S. government's official web portal to all federal, state and local government web resources and services.